Location: Caujarito
(10.2560°N, 66.7839°W)
Time: 10:57:27
(UTC+00:00)

Daily predictions for brighter satellites

Satellite Brightness Start Highest point End
(mag) Time Altitude Azimuth Time Altitude Azimuth Time Altitude Azimuth
Cosmos 2056 Rocket 3.7 22:20:22 10° S 22:25:28 53° ESE 22:30:39 10° NNE
JB-3 4.1 22:23:31 10° NNE 22:27:18 76° E 22:31:02 10° S
SKYMED 2 4.0 22:23:09 10° N 22:27:27 67° WNW 22:31:45 10° SSW
Cosmos 1812 Rocket 4.4 22:26:41 10° SSW 22:30:53 53° W 22:35:05 10° N
Spelda 4.5 22:27:38 10° WSW 22:35:31 45° S 22:38:08 10° ESE
TRACE 4.5 22:33:56 10° NNE 22:37:28 83° ESE 22:41:00 10° S
Maqsat-H 4.1 22:39:16 10° SW 22:41:51 14° SSW 22:43:57 10° SSE
Intelsat 5-2 Rocket 3.8 22:41:22 10° W 22:43:32 30° SSW 22:46:38 10° SE
SL-4 R/B 1.4 22:45:16 10° SSW 22:48:37 72° SE 22:51:06 16° NE
Cosmos 1371 Rocket 4.2 22:44:18 10° SSW 22:49:27 76° WNW 22:54:38 10° N
ADEOS 4.2 22:44:55 10° SE 22:49:27 31° ENE 22:54:00 10° NNE
SL-16 R/B 2.4 22:43:50 10° NNW 22:49:29 79° WSW 22:55:07 10° SSE
GPS 2-17 Rocket1 3.1 22:45:12 10° WNW 22:49:58 69° NNE 22:54:05 14° E
Hubble Space Telescope 2.8 22:50:00 10° N 22:51:22 11° NNE 22:52:10 11° NNE
Cosmos 1602 4.3 22:48:29 10° NNW 22:52:08 56° W 22:55:48 10° S
Cosmos 1666 4.3 22:51:31 10° NNW 22:54:45 35° W 22:58:00 10° SSW
BLOCK DM-SL R/B 4.1 22:52:21 10° WSW 22:56:16 32° S 23:00:28 11° ESE
Cosmos 1515 3.4 22:58:29 10° S 23:02:02 71° E 23:05:33 10° N
ARIANE 44LP R/B 3.3 22:56:45 10° WSW 23:02:11 36° S 23:03:45 18° SE
Cosmos 1943 3.9 22:58:36 10° NNE 23:03:24 29° ENE 23:08:12 10° SE
GPS 2-14 Rocket1 3.4 23:00:49 10° W 23:04:08 34° NNW 23:05:38 24° NNE
Cosmos 44 3.7 22:59:40 10° N 23:04:23 39° ENE 23:08:49 10° SE
ARIANE 44L R/B 2.7 23:03:28 10° WSW 23:05:39 47° S 23:09:11 17° ESE
Cosmos 2084 Rocket 3.6 23:03:10 10° NNW 23:07:00 67° WSW 23:10:59 10° SSE
CZ-4B R/B 3.6 23:06:22 10° SE 23:10:21 36° ENE 23:13:14 17° NNE
Radarsat Rocket 3.8 23:05:04 10° SSE 23:11:12 78° ENE 23:16:59 10° N
Cosmos 1023 Rocket 4.5 23:10:27 10° N 23:15:23 52° ENE 23:20:17 10° SSE
Meteor 1-29 4.0 23:13:36 10° SSE 23:14:46 22° SSE 23:14:46 22° SSE
Meteor 2-6 Rocket 4.3 23:11:10 10° S 23:16:50 57° E 23:21:39 15° NNE
Meteor 1-25 Rocket 4.4 23:18:58 10° N 23:24:31 72° W 23:30:02 10° S
H-2A ROCKET BODY 3.7 23:26:26 10° SW 23:27:54 13° SSW 23:30:00 10° SSE
Cosmos 2221 4.2 23:24:37 10° SSW 23:28:28 33° W 23:32:16 10° NNW
Delta 7925 Rocket 4.5 23:27:34 10° W 23:31:44 31° NNW 23:33:01 27° N
Cosmos 2266 Rocket 4.0 23:28:08 10° S 23:34:14 58° E 23:36:47 34° NNE
Cosmos 1553 Rocket 4.1 23:32:19 32° NE 23:34:40 46° E 23:40:29 10° SSE
YAOGAN 1 2.3 23:31:10 10° SSE 23:35:27 77° ENE 23:37:08 36° N
Meteor 2-7 Rocket 4.5 23:33:45 10° S 23:39:12 75° E 23:41:14 40° NNE
Cosmos 1140 Rocket 3.4 23:36:37 10° NNW 23:41:44 80° WSW 23:46:50 10° S
Cosmos 1378 3.6 23:40:26 10° SSW 23:43:16 51° SW 23:43:16 51° SW
Meteor 1-10 Rocket 4.2 23:43:49 10° S 23:49:33 68° E 23:50:08 64° ENE
Stardust Del rocket 4.3 23:42:38 10° WNW 23:49:26 50° N 23:49:26 50° N
Cosmos 1110 Rocket 3.9 23:48:21 10° SSW 23:53:33 84° WNW 23:54:05 71° N
